TimeAWST,TemperatureF,Dew PointF,Humidity,Sea Level PressureIn,VisibilityMPH,Wind Direction,Wind SpeedMPH,Gust SpeedMPH,PrecipitationIn,Events,Conditions,WindDirDegrees,DateUTC
12:00 AM,78,45,21,29.86,,ESE,8.1,,,,,120,2013-04-11 16:00:00
12:00 AM,77.0,44.6,32,29.86,-9999.0,ESE,8.1,-,N/A,,Unknown,120,2013-04-11 16:00:00
1:00 AM,77.0,44.6,32,29.86,-9999.0,ESE,6.9,-,N/A,,Unknown,120,2013-04-11 17:00:00
2:00 AM,75.2,44.6,34,29.86,-9999.0,ESE,8.1,-,N/A,,Unknown,110,2013-04-11 18:00:00
3:00 AM,75,44,22,29.85,,East,8.1,,,,,100,2013-04-11 19:00:00
3:00 AM,75.2,42.8,31,29.86,-9999.0,East,8.1,-,N/A,,Unknown,100,2013-04-11 19:00:00
4:00 AM,73.4,42.8,33,29.83,-9999.0,ESE,6.9,-,N/A,,Unknown,110,2013-04-11 20:00:00
5:00 AM,71.6,44.6,38,29.86,-9999.0,ESE,9.2,-,N/A,,Unknown,120,2013-04-11 21:00:00
6:00 AM,72,43,24,29.86,,ESE,8.1,,,,,110,2013-04-11 22:00:00
6:00 AM,71.6,42.8,35,29.86,-9999.0,ESE,8.1,-,N/A,,Unknown,110,2013-04-11 22:00:00
7:00 AM,75.2,46.4,36,29.89,-9999.0,East,8.1,-,N/A,,Unknown,100,2013-04-11 23:00:00
8:00 AM,84.2,50.0,30,29.89,-9999.0,East,6.9,-,N/A,,Unknown,90,2013-04-12 00:00:00
9:00 AM,90,49,15,29.90,,East,11.5,,,,,80,2013-04-12 01:00:00
9:00 AM,91.4,48.2,23,29.89,-9999.0,East,11.5,25.3,N/A,,Unknown,80,2013-04-12 01:00:00
10:00 AM,95.0,50.0,22,29.89,-9999.0,ENE,10.4,-,N/A,,Unknown,70,2013-04-12 02:00:00
11:00 AM,96.8,48.2,19,29.86,-9999.0,ENE,10.4,-,N/A,,Unknown,70,2013-04-12 03:00:00
12:00 PM,98,46,9,29.84,,ENE,8.1,,,,,70,2013-04-12 04:00:00
12:00 PM,98.6,46.4,17,29.86,-9999.0,ENE,8.1,-,N/A,,Unknown,70,2013-04-12 04:00:00
1:00 PM,95.0,41.0,15,29.83,-9999.0,East,9.2,-,N/A,,Unknown,100,2013-04-12 05:00:00
2:00 PM,96.8,44.6,17,29.80,-9999.0,East,6.9,-,N/A,,Unknown,100,2013-04-12 06:00:00
3:00 PM,96,43,9,29.80,,East,5.8,,,,,80,2013-04-12 07:00:00
3:00 PM,96.8,42.8,16,29.80,-9999.0,East,5.8,-,N/A,,Unknown,80,2013-04-12 07:00:00
4:00 PM,95.0,46.4,19,29.80,-9999.0,East,4.6,-,N/A,,Unknown,80,2013-04-12 08:00:00
5:00 PM,91.4,53.6,28,29.83,-9999.0,ENE,1.2,-,N/A,,Unknown,70,2013-04-12 09:00:00
5:38 PM,82.4,57.2,42,29.83,-9999.0,East,3.5,-,N/A,,Unknown,90,2013-04-12 09:38:00
6:00 PM,79,54,32,29.84,,SE,2.3,,,,,130,2013-04-12 10:00:00
6:00 PM,78.8,53.6,42,29.86,-9999.0,SE,2.3,-,N/A,,Unknown,130,2013-04-12 10:00:00
7:00 PM,73.4,53.6,50,29.86,-9999.0,NW,3.5,-,N/A,,Unknown,320,2013-04-12 11:00:00
8:00 PM,71.6,55.4,57,29.89,-9999.0,Calm,Calm,-,N/A,,Unknown,0,2013-04-12 12:00:00
9:00 PM,69,55,51,29.89,,Calm,Calm,,,,,,2013-04-12 13:00:00
9:00 PM,69.8,55.4,60,29.89,-9999.0,Calm,Calm,-,N/A,,Unknown,0,2013-04-12 13:00:00
10:00 PM,68.0,57.2,68,29.89,-9999.0,Calm,Calm,-,N/A,,Unknown,0,2013-04-12 14:00:00
11:00 PM,66.2,57.2,73,29.89,-9999.0,Calm,Calm,-,N/A,,Unknown,0,2013-04-12 15:00:00